Vorticity
10 6 4 4 4 4 3 3 3 4 3 3 4 4 4 5 6 7 7 6 5 5 7 11 8 8 9 4 6 18 6 6 5 5 2 8 5 4 5 4 3 4 5
8 6 3 3 3 3 2 5 4 3 3 3 4 3 3 4 4 7 8 6 5 5 7 9 8 9 8 24 4 2 7 7 6 6 5 5 5 7 9 8 5 5 5
8 6 4 4 6 4 5 3 2 3 3 2 2 2 3 4 3 6 7 7 5 4 4 6 8 8 8 5 7 7 8 7 7 6 5 6 6 6 5 7 6 5 5
8 7 6 6 6 5 4 4 3 3 4 2 2 2 3 3 4 3 7 8 6 4 2 3 5 7 8 8 8 9 8 7 7 6 5 6 6 12 7 7 4 5 5
2 5 10 9 7 4 5 4 5 4 4 3 2 2 2 2 3 4 6 8 7 5 2 3 3 6 8 9 8 8 8 8 8 6 6 6 6 1 6 3 5 5 5
3 3 2 2 5 9 6 4 4 4 4 3 1 3 2 2 3 2 4 6 7 6 4 2 2 4 7 9 9 9 9 8 8 8 7 9 7 5 8 4 5 5 4
3 3 5 9 9 8 9 6 5 4 3 3 3 4 4 3 4 3 3 5 7 7 5 3 2 3 4 7 8 9 8 8 7 8 5 7 7 4 4 6 5 5 5
4 4 3 4 7 8 9 7 2 6 5 4 4 4 3 3 4 3 2 3 6 7 7 5 3 3 3 4 7 8 8 8 7 7 6 9 6 6 6 5 5 5 5
8 8 7 7 7 7 6 8 6 6 2 4 4 4 4 4 3 2 3 2 3 5 7 7 6 4 2 3 4 7 9 8 7 6 6 6 6 5 5 5 5 4 4
2 3 6 8 8 6 7 8 7 7 4 4 4 5 3 4 5 5 5 3 3 3 4 6 6 6 3 3 2 4 6 8 7 7 7 6 6 5 5 4 4 4 4
6 5 4 4 4 4 5 6 7 9 8 7 5 3 5 7 4 3 3 3 2 2 3 4 6 7 5 5 3 2 4 6 7 7 7 6 6 6 6 6 5 5 5
6 6 6 6 7 7 7 6 6 6 6 7 9 9 6 6 5 4 4 4 2 2 2 4 4 5 6 7 7 4 2 3 5 7 7 7 7 7 7 6 6 6 6
6 7 7 7 7 7 7 8 9 10 8 6 5 6 6 10 8 6 5 4 4 3 2 4 3 3 6 6 5 5 4 3 2 4 6 7 7 7 7 7 7 7 7
6 7 7 6 6 6 6 5 5 5 6 7 8 8 7 5 8 10 5 5 3 4 4 4 4 4 3 5 6 5 5 5 4 3 4 4 5 6 6 6 6 7 7
6 6 7 7 6 6 6 5 5 5 5 5 6 6 6 6 7 6 9 8 4 4 5 5 6 6 5 3 4 5 5 6 5 4 3 4 4 4 5 5 5 6 6
6 7 7 6 6 6 6 6 6 6 5 5 5 4 5 5 6 6 6 8 12 6 4 5 5 4 3 1 1 4 5 5 6 6 4 3 3 3 4 4 4 4 4
5 5 6 6 6 6 5 6 6 6 6 6 6 5 5 4 4 5 6 6 8 9 12 2 3 6 5 5 4 3 3 4 4 5 6 6 4 4 3 5 4 3 4
5 5 4 4 5 6 8 10 11 11 10 9 9 10 9 7 6 5 4 5 6 7 7 10 8 2 3 5 6 7 7 6 5 3 5 5 5 6 5 4 6 5 4
4 4 6 8 11 11 11 11 12 13 13 12 13 12 11 10 9 7 7 7 6 6 6 8 7 10 4 4 2 6 6 8 7 5 4 5 3 5 5 5 5 6 5
5 9 11 10 10 10 11 12 12 15 16 15 14 13 13 14 13 11 10 9 7 7 8 8 7 7 9 5 11 4 9 4 6 8 3 2 3 3 5 5 5 6 5
13 11 11 11 11 11 10 12 12 11 17 17 16 14 12 13 16 15 15 13 11 9 8 7 7 9 9 4 6 10 -0 11 15 7 8 9 10 5 6 6 6 4 6
10 11 12 10 9 9 13 15 18 16 15 18 20 18 16 14 11 11 11 12 11 10 9 9 9 11 11 14 2 14 12 -6 -22 38 9 10 7 11 10 7 4 8 7
11 9 5 7 11 12 14 15 15 16 16 18 20 21 19 18 19 19 19 18 17 16 17 16 12 10 12 12 19 -1 18 -4 18 42 16 36 -3 5 6 4 8 -4 9
6 5 7 9 9 10 12 16 13 11 12 16 15 16 15 16 17 17 17 21 26 26 25 22 22 22 24 17 16 17 10 1 -13 -18 -32 41 15 17 37 17 16 40 10
4 5 6 6 7 8 10 12 14 12 16 14 12 12 13 15 14 13 12 12 11 11 13 16 17 17 14 11 13 19 31 28 3 5 29 -22 1 -11 -42 3 6 -11 -16
5 5 6 6 8 9 10 10 8 15 12 10 11 12 12 9 8 9 9 9 10 11 14 14 16 14 15 14 14 14 12 16 23 25 14 9 16 2 23 5 6 1 33
Height
3182 3182 3182 3183 3184 3184 3185 3185 3186 3186 3186 3186 3185 3185 3185 3184 3184 3183 3182 3182 3182 3182 3181 3180 3179 3179 3178 3178 3178 3178 3179 3179 3179 3179 3178 3179 3178 3179 3179 3180 3180 3180 3180
3181 3182 3182 3183 3184 3184 3184 3184 3185 3185 3185 3185 3186 3185 3185 3185 3184 3183 3183 3182 3181 3181 3181 3180 3180 3179 3179 3178 3178 3178 3178 3178 3178 3179 3179 3179 3179 3179 3179 3179 3180 3180 3180
3180 3181 3182 3183 3183 3183 3183 3184 3184 3185 3185 3185 3185 3185 3185 3185 3185 3184 3183 3182 3182 3181 3181 3180 3180 3179 3179 3179 3178 3178 3178 3178 3178 3179 3179 3179 3179 3179 3179 3179 3179 3180 3180
3180 3181 3181 3181 3182 3183 3183 3183 3183 3184 3184 3184 3184 3185 3185 3184 3184 3184 3183 3183 3182 3182 3181 3180 3180 3179 3179 3178 3178 3178 3177 3177 3177 3178 3178 3179 3179 3179 3178 3179 3179 3179 3179
3179 3180 3181 3181 3181 3181 3182 3182 3182 3183 3182 3183 3183 3183 3183 3183 3183 3182 3182 3182 3181 3181 3181 3180 3180 3179 3178 3178 3177 3176 3176 3177 3177 3177 3177 3177 3178 3178 3178 3178 3178 3178 3178
3179 3179 3179 3179 3179 3180 3180 3180 3180 3180 3181 3181 3180 3181 3181 3182 3182 3181 3181 3180 3180 3180 3180 3180 3179 3179 3178 3177 3176 3175 3175 3175 3175 3176 3176 3176 3176 3176 3177 3177 3177 3177 3177
3177 3176 3176 3176 3176 3176 3177 3178 3178 3179 3179 3179 3179 3179 3179 3179 3179 3180 3180 3179 3179 3179 3179 3179 3178 3178 3178 3176 3175 3175 3174 3174 3174 3174 3174 3174 3175 3175 3175 3175 3176 3176 3176
3173 3174 3174 3175 3175 3174 3174 3175 3175 3176 3176 3176 3177 3177 3177 3177 3177 3177 3177 3177 3177 3177 3177 3177 3177 3177 3176 3176 3175 3174 3173 3173 3173 3173 3173 3173 3173 3173 3173 3173 3173 3173 3174
3171 3172 3172 3173 3173 3173 3172 3172 3172 3172 3173 3173 3174 3174 3175 3175 3175 3176 3175 3175 3174 3174 3174 3174 3175 3174 3174 3174 3174 3173 3172 3172 3171 3171 3171 3172 3172 3171 3171 3171 3171 3171 3171
3169 3170 3170 3170 3170 3170 3170 3169 3169 3169 3169 3169 3169 3169 3169 3170 3172 3172 3172 3172 3172 3172 3172 3172 3172 3172 3172 3172 3172 3171 3170 3170 3169 3169 3169 3169 3169 3169 3169 3169 3169 3169 3168
3167 3167 3167 3167 3167 3167 3166 3166 3166 3165 3165 3165 3165 3165 3165 3166 3166 3167 3168 3168 3169 3169 3169 3169 3168 3168 3169 3169 3169 3169 3169 3168 3167 3166 3166 3166 3166 3166 3166 3166 3166 3166 3165
3164 3164 3164 3163 3163 3163 3163 3162 3161 3161 3160 3160 3160 3160 3160 3160 3160 3162 3162 3162 3163 3164 3164 3164 3165 3164 3164 3164 3165 3165 3165 3165 3164 3164 3163 3163 3163 3163 3163 3163 3163 3162 3162
3161 3160 3160 3159 3158 3158 3157 3157 3157 3156 3156 3155 3154 3154 3154 3154 3154 3155 3155 3156 3157 3158 3158 3159 3159 3159 3159 3159 3159 3160 3160 3161 3161 3160 3160 3159 3159 3159 3159 3159 3159 3159 3159
3157 3157 3156 3155 3155 3153 3153 3152 3151 3150 3150 3149 3148 3147 3147 3147 3147 3148 3148 3150 3150 3151 3152 3152 3153 3153 3153 3154 3154 3154 3154 3155 3156 3156 3156 3155 3155 3155 3155 3155 3155 3154 3154
3153 3153 3152 3151 3150 3149 3148 3147 3146 3145 3144 3143 3142 3141 3140 3140 3140 3140 3141 3142 3143 3143 3144 3144 3145 3146 3146 3147 3147 3148 3148 3149 3149 3149 3150 3151 3150 3151 3150 3150 3150 3150 3150
3150 3149 3148 3147 3145 3144 3143 3142 3140 3139 3137 3136 3136 3134 3133 3132 3133 3132 3132 3133 3134 3136 3136 3136 3137 3137 3138 3139 3140 3141 3142 3142 3142 3143 3144 3144 3145 3145 3145 3145 3145 3145 3145
3146 3145 3144 3143 3141 3139 3137 3135 3134 3132 3130 3130 3128 3127 3126 3124 3124 3124 3125 3125 3126 3127 3127 3128 3128 3128 3129 3130 3131 3133 3134 3135 3134 3135 3135 3136 3137 3138 3139 3139 3139 3140 3140
3141 3140 3138 3136 3134 3132 3130 3128 3126 3124 3122 3121 3119 3118 3117 3115 3114 3114 3114 3115 3117 3117 3118 3118 3119 3119 3120 3121 3121 3124 3124 3125 3127 3127 3126 3127 3128 3130 3131 3131 3132 3133 3133
3135 3134 3132 3129 3126 3123 3121 3118 3116 3114 3111 3109 3108 3106 3106 3104 3104 3102 3103 3104 3106 3106 3107 3109 3109 3109 3110 3110 3111 3113 3114 3115 3117 3117 3117 3117 3118 3119 3121 3123 3124 3124 3125
3130 3127 3125 3122 3118 3115 3112 3108 3106 3103 3100 3098 3096 3095 3095 3094 3093 3092 3092 3092 3093 3093 3094 3096 3096 3098 3098 3098 3100 3101 3103 3104 3106 3107 3108 3107 3108 3109 3110 3112 3114 3114 3116
3124 3122 3119 3117 3113 3109 3106 3102 3099 3095 3091 3087 3085 3084 3084 3083 3083 3082 3081 3081 3081 3082 3082 3083 3084 3085 3087 3088 3090 3089 3090 3089 3092 3094 3097 3098 3098 3100 3100 3101 3103 3104 3106
3119 3117 3114 3112 3109 3104 3100 3095 3091 3088 3083 3079 3076 3074 3073 3073 3072 3072 3071 3070 3070 3070 3069 3069 3071 3072 3074 3076 3077 3079 3078 3078 3079 3084 3086 3087 3088 3089 3088 3089 3091 3092 3094
3114 3112 3109 3106 3103 3098 3093 3088 3084 3080 3075 3072 3068 3066 3064 3063 3063 3062 3061 3061 3060 3060 3059 3060 3061 3062 3061 3063 3067 3068 3068 3067 3070 3072 3071 3072 3074 3076 3077 3078 3079 3077 3079
3108 3106 3103 3100 3096 3091 3087 3083 3078 3074 3071 3067 3064 3061 3058 3056 3055 3053 3052 3050 3050 3049 3049 3049 3050 3051 3051 3051 3054 3056 3058 3058 3058 3056 3057 3056 3060 3061 3062 3065 3066 3066 3067
3104 3101 3098 3094 3090 3086 3081 3077 3073 3069 3066 3063 3060 3057 3054 3052 3049 3048 3045 3044 3042 3041 3041 3040 3041 3041 3042 3042 3042 3044 3046 3047 3047 3046 3042 3047 3046 3047 3048 3051 3054 3051 3052
3100 3097 3094 3090 3086 3082 3077 3072 3069 3066 3061 3058 3055 3053 3050 3047 3045 3043 3041 3038 3036 3035 3034 3033 3032 3033 3033 3033 3034 3034 3035 3034 3036 3035 3034 3033 3035 3036 3038 3041 3043 3041 3040